THOR ABLESTAR DEB, 147

Orbit data source: Space-Track

THOR ABLESTAR DEB, 147 is space debris in LEO originally from a launch on Thu, 29 Jun 1961 UTC launched from the Air Force Eastern Test Range (AFETR). Debris objects in space refer to the collection of defunct objects orbiting the Earth. Examples of debris include non-operational satellites, rocket bodies, and fragments generated from explosions, collisions, or faulty payload assembly.

Loading next visibility...
Identifier
147, 1961-015AH
Orbit
LEO
Country
Flag of USUS
Related business
Manufacturer
Unknown
Mission
Spacecraft
Bus & Motor
Unknown
Mass
Unknown
Launch date (UTC)
1961-06-29 (64 years ago)
Launch vehicle
Unknown
Launch site
Air Force Eastern Test Range (AFETR)
Object type
Payload
Rocket body
Debris
Shape & HBR
Unknown shape, 0.2 m
Radar Cross Section
Medium (>0.1 m² and <1 m²)

Expand to show TLE details & history
Last TLE update: 13 hours ago

TLE from 13 hours ago
0 THOR ABLESTAR DEB
1 00147U 61015AH  25349.74077466  .00001336  00000-0  60979-3 0  9996
2 00147  66.6163 117.4643 0055450 212.1561 147.6148 14.23880314308348
Epoch: 2025-12-15T17:46Z
TLE epoch observation values (Epoch: 2025-12-15T17:46:42.930Z)
Latitude
-0.00002°
Longitude
126.15042°
Altitude
848.09 km
Speed
7.412 km/s
True Right ascension
07h 49m 51s
True Declination
0° 00' 00"
Sunlit
Object was in full shadow at epoch
Visualization orbit readout
Latitude
Unknown
Longitude
Unknown
Altitude
Unknown
Speed
Unknown
Apparent Right ascension
Unknown
Apparent Declination
Unknown
Sunlit
N/A
Visualization observer readout
Local Sidereal Time
05:18:16
Azimuth
Unknown
Elevation
Unknown
Doppler factor
Unknown
Orbital elements
Apogee altitude
850.511 km
Perigee altitude
770.787 km
Semi-major axis
7,188.786 km
Eccentricity
0.00555
Inclination
66.6163°
RAAN
117.4643°
Arg. of periapsis
212.1561°
True anomaly
147.95315°
Mean anomaly
147.6148°
Eccentric anomaly
147.78417°
Mean motion
3.5609 °/min
Orbital period
101.1 mins
BSTAR
0.00060979
Loading maneuver chart data...
Computing Atmospheric mass density...
Loading historical data...
Loading historical data...
Loading historical data...
Loading historical data...
Loading historical data...
Loading historical data...
Loading historical data...

Documentation

Showing up to 5 results
|